Flag for Trinidad and Tobago Weather past 2 weeks in Scarborough, Trinidad and Tobago

Now
79 °F

Passing clouds.


Feels Like: 82 °F
Forecast: 74 / 84 °F
Wind: 3 mph from Northeast

Location: Crown Pt./ Scarborou

Current Time: Mar 3, 2015 at 9:29:32 AM

Latest Report: Mar 3, 2015 at 8:00 AM


Visibility: N/A

Pressure: 29.95 "Hg

Humidity: 84%

Dew point: 73 °F

Location of ScarboroughLocation

Historic Weather in Scarborough — Graph

°F

Scarborough temperature yesterday

Maximum temperature yesterday: 84 °F (at 2:00 PM)
Minimum temperature yesterday: 73 °F (at 1:00 AM)
Average temperature yesterday: 78 °F

Past Weeks' High & Low Weather Summary

 TemperatureHumidityPressure
High88 °F (Feb 22, 1:00 PM)94% (Feb 26, 7:00 PM)30.07 "Hg (Feb 26, 7:00 PM)
Low72 °F (Feb 23, 6:00 AM)49% (Feb 23, 1:00 PM)29.89 "Hg (Feb 19, 5:00 AM)
Average78 °F75%29.97 "Hg
* Reported Feb 16 8:00 AM — Mar 3 8:00 AM, Scarborough, Weather by CustomWeather, © 2015

Note: Actual official high and low records may vary slightly from our data, if they occured in-between our weather recording intervals... More about our weather records

Advertising

Scarborough weather history for previous 24 hours

 ConditionsComfort  
Time TempWeatherWind HumidityBarometerVisibility
8:00 AM
Tue, Mar 3
79 °FPassing clouds.3 mph84%29.95 "HgN/A
7:00 AM73 °FPassing clouds.No wind89%29.92 "HgN/A
6:00 AM73 °FClear.No wind83%29.89 "Hg10 mi
4:00 AM73 °FPassing clouds.No wind83%29.89 "HgN/A
2:00 AM75 °FPassing clouds.5 mph83%29.92 "HgN/A
1:00 AM75 °FPassing clouds.6 mph83%29.92 "HgN/A
12:00 AM75 °FPassing clouds.6 mph83%29.95 "HgN/A
11:00 PM
Mon, Mar 2
75 °FPassing clouds.6 mph83%29.98 "HgN/A
10:00 PM75 °FPassing clouds.No wind83%29.95 "HgN/A
9:00 PM77 °FPassing clouds.No wind79%29.95 "HgN/A
8:00 PM77 °FPassing clouds.No wind89%29.92 "HgN/A
7:00 PM77 °FPassing clouds.6 mph79%29.92 "HgN/A
6:00 PM79 °FPartly sunny.3 mph79%29.89 "HgN/A
5:00 PM81 °FScattered clouds.3 mph70%29.89 "HgN/A
3:00 PM81 °FScattered clouds.6 mph74%29.89 "HgN/A
2:00 PM84 °FScattered showers. Scattered clouds.8 mph66%29.92 "HgN/A
1:00 PM82 °FSprinkles. Partly sunny.16 mph70%29.95 "Hg3 mi
12:00 PM81 °FScattered showers. Broken clouds.17 mph74%29.98 "Hg4 mi
11:00 AM82 °FRain showers. Broken clouds.17 mph66%30.01 "Hg3 mi
10:00 AM81 °FSprinkles. Scattered clouds.15 mph70%30.01 "Hg5 mi
9:00 AM79 °FPartly sunny.7 mph70%30.01 "HgN/A
Weather by CustomWeather, © 2015

See weather overviewHow to use our weather pages